{"data":{"norad_id":65900,"epoch":"2026-09-20T06:44:00.561984Z","epoch_age_seconds":125088,"freshness":"FRESH","line1":"1 65900U 25224U   26263.28056206  .00017806  00000+0  53671-3 0  9999","line2":"2 65900  53.1572 182.7641 0001635 111.7756 248.3421 15.34409061 54722","mean_motion":15.34409061,"eccentricity":0.0001635,"inclination_deg":53.1572,"raan_deg":182.7641,"arg_perigee_deg":111.7756,"mean_anomaly_deg":248.3421,"bstar":0.00053671,"rev_number":5472,"period_min":93.847203891088,"perigee_km":461.55783616207,"apogee_km":463.79478211416,"semimajor_km":6840.8133091381,"source":"CELESTRAK","updated_at":"2026-09-21T09:00:35.759954Z"}}